STARLINK-32474, 61260

Orbit data source: Space-Track

STARLINK-32474, 61260 is a payload satellite owned by SpaceX/Seattle (US) in LEO that was launched on Wed, 25 Sep 2024 UTC via an FALCON 9 launch vehicle from the Air Force Western Test Range (AFWTR). Payloads include a variety of satellites, spacecraft, and rockets equipped with specific instruments for various scientific and technological missions. These include communications satellites like Starlink; space stations such as the ISS; scientific satellites like the Hubble; Earth observation satellites from companies like Planet Labs, Umbra, and HawkEye 360; GPS; miniature CubeSats for education and research; and military/defense satellites.

Loading next visibility...
STARLINK-32474 details
Identifier
61260, 2024-175T
Orbit
LEO
Last TLE update19 hours ago
Origin
Flag of USSpaceX/Seattle (US)
ManufacturerSpaceX/Seattle
MissionOperational spacecraft
Bus & MotorSTARLINK V2M, Unknown motor
Mass730 kg wet, ~700 kg dry
Launch date (UTC)
2024-09-25 (3 months ago)
Launch vehicle
FALCON 9
Launch site
Air Force Western Test Range (AFWTR)
Object type
Payload
Rocket body
Debris
Shape & HBRUnknown
Radar Cross SectionLarge (>1 m²)

Expand to show TLE details & history

TLE from 19 hours ago
0 STARLINK-32474
1 61260U 24175T   24355.71489545 -.00000654  00000-0 -63765-5 0  9995
2 61260  53.1590  98.7728 0001126  94.5859 265.5275 15.39635327 13449
Epoch: 2024-12-20T17:09Z
Definitive object data (Epoch: 2024-12-20T17:09:26.966Z)
Latitude-0°
Longitude111.63401°
Altitude448.15 km
Speed7.645 km/s
True Right ascension06h 35m 05s
True Declination0° 00' 00"
Sunlit
Object was in full shadow at TLE epoch
Visualization TLE readout
Latitude44.97981°
Longitude-120.25684°
Altitude451.148 km
Speed7.648 km/s
Apparent Right ascension19h 18m 14s
Apparent Declination9° 07' 21"
Sunlit
Object is in daylight
Visualization observer readout
Local Sidereal Time11:23:37
Azimuth63.847° ENE
Elevation-15.155°
Doppler factor1
Orbital elements
Apogee altitude448.213 km
Perigee altitude446.676 km
Semi-major axis6,825.581 km
Eccentricity0.0001126
Inclination53.159°
RAAN98.7728°
Arg. of periapsis94.5859°
True anomaly265.51464°
Mean anomaly265.5275°
Eccentric anomaly265.52107°
Mean motion3.84887 °/min
BSTAR-0.0000063765
Orbital period93.53 mins
Loading maneuver chart data...
Loading historical data...
Loading historical data...
Loading historical data...
Loading historical data...
Loading historical data...
Loading historical data...
Loading historical data...

STARLINK-32474 Visibility forecast

Observer location: undefined°, undefined

Span
Click to sort rows by Start time (UTC) header in descending order
Start Az.
Max El. time (UTC)
Max El. Az.
Max El.
End time (UTC)
End Az.
5 mins2024-12-21 15:25:49.746Z339.975° N2024-12-21 15:27:49.746Z22.727° NE21.761°2024-12-21 15:30:49.746Z82.802° E
4 mins2024-12-21 17:03:49.746Z285.67° WNW2024-12-21 17:05:49.746Z201.52° SSW35.308°2024-12-21 17:07:49.746Z155.57° SSE
5 mins2024-12-22 09:52:49.746Z255.406° W2024-12-22 09:54:49.746Z350.891° N38.328°2024-12-22 09:57:49.746Z42.499° NE
|